Location: Hyderabad
(17.3833°N, 78.4667°E)
Time: 19:04:19
(UTC+05:30)

Daily predictions for brighter satellites

Satellite Brightness Start Highest point End
(mag) Time Altitude Azimuth Time Altitude Azimuth Time Altitude Azimuth
Meteor 1-21 4.5 18:23:35 10° N 18:29:25 84° W 18:35:15 10° S
Cosmos 1184 Rocket 3.5 18:28:59 10° NNE 18:32:04 33° E 18:35:08 10° SSE
Milstar 3 Cent rocket 2.5 18:27:10 10° WSW 18:34:06 70° NNW 18:38:47 10° ENE
COSMOS 2406 4.0 18:30:22 10° SSE 18:35:14 30° ESE 18:40:07 10° NE
Cosmos 841 Rocket 3.6 18:33:34 10° S 18:38:34 52° ESE 18:43:32 10° NNE
Aurora 2 Rocket 4.5 18:31:42 10° WNW 18:38:40 55° NNE 18:48:07 10° E
FENGYUN 3A 4.2 18:36:44 10° SE 18:41:35 36° ENE 18:46:25 10° N
Cosmos 1726 Rocket 3.5 18:45:15 10° S 18:49:39 85° E 18:54:01 10° N
METEOR-M 4.2 18:46:03 10° SSE 18:51:23 89° WSW 18:56:45 10° NNW
Cosmos 1758 Rocket 4.1 18:51:50 10° NNE 18:55:59 37° E 19:00:07 10° SSE
Cosmos 2369 Rocket 2.2 18:51:54 10° N 18:57:26 60° ENE 19:02:55 10° SSE
NOAA 12 4.0 18:53:55 10° SSE 18:59:06 71° ENE 19:04:18 10° N
Cosmos 1763 Rocket 4.1 18:55:07 10° SSW 19:00:05 59° WNW 19:05:06 10° N
Cosmos 489 Rocket 4.5 18:54:18 10° N 19:00:30 62° ENE 19:06:43 10° SSE
Cosmos 304 Rocket 3.7 18:57:00 10° SSW 19:01:46 89° ESE 19:06:34 10° NNE
GPS 2-04 Rocket1 4.5 18:59:56 10° NNW 19:03:16 21° NNE 19:05:13 16° ENE
Cosmos 540 Rocket 3.7 19:00:09 10° S 19:04:56 42° E 19:09:43 10° NNE
Meteor 2-13 Rocket 4.4 18:58:56 10° S 19:05:03 86° E 19:11:09 10° N
USA 234 3.2 18:59:08 10° SE 19:05:40 80° NE 19:12:12 10° NW
H-2A R/B 3.5 19:04:41 18° SE 19:06:44 29° ENE 19:09:59 10° NNE
Centaur D-1AR AC-38 3.7 19:02:32 10° W 19:10:23 68° N 19:12:38 22° ENE
Shenzhou-11 Module 2.0 19:08:55 10° NW 19:11:55 58° NE 19:12:46 39° E
FUSE 4.2 19:13:22 10° WNW 19:18:38 56° NNE 19:21:15 29° E
ALOS 2.5 19:14:19 10° S 19:18:58 73° W 19:23:36 10° NNW
Cosmos 2263 4.1 19:13:49 10° N 19:19:25 67° ENE 19:25:03 10° SSE
Cosmos 1766 3.3 19:15:34 10° S 19:19:26 54° E 19:23:16 10° NNE
OAO 3 Rocket 4.1 19:15:40 10° SSW 19:19:50 28° SE 19:20:38 27° SE
Cosmos 2228 3.9 19:19:41 10° SSW 19:23:57 53° W 19:28:13 10° N
Cosmos 836 Rocket 4.4 19:21:46 10° S 19:27:03 84° ESE 19:32:19 10° NNE
Intelsat 5-3 Rocket 3.5 19:23:17 10° WNW 19:27:37 86° SSW 19:33:07 27° ESE
Cosmos 2058 Rocket 4.4 19:24:44 10° SSW 19:28:49 40° W 19:32:54 10° NNW
NATO 3D Rocket 3.7 19:23:34 10° W 19:29:55 71° N 19:32:04 35° ENE
ISS -3.1 19:29:12 10° SW 19:32:22 52° NW 19:33:21 36° N
Cosmos 2154 Rocket 4.2 19:26:41 10° SSE 19:32:27 42° E 19:38:15 10° NNE
SWIFT 2.2 19:29:11 10° WNW 19:33:24 76° N 19:34:08 58° ENE
Centaur AC-112 2.6 19:24:12 10° WSW 19:33:30 71° NNW 19:34:25 46° NE
Cosmos 2181 Rocket 4.0 19:27:33 10° N 19:33:41 78° W 19:39:46 10° S
Cosmos 2074 Rocket 4.1 19:31:41 10° S 19:37:52 74° W 19:44:04 10° N
HJ-1C 4.5 19:39:37 35° N 19:39:37 35° N 19:41:40 10° N
Cosmos 1707 3.0 19:34:31 10° N 19:38:24 68° W 19:42:17 10° S
OAO 2 Rocket 3.5 19:35:57 10° NW 19:41:11 58° NNE 19:42:03 50° ENE
Cosmos 1953 Rocket 4.3 19:38:18 10° NNW 19:42:28 50° W 19:46:38 10° SSW
Meteor 1-24 Rocket 3.9 19:37:52 10° N 19:43:31 48° E 19:43:40 48° E
GEOS 3 Rocket 4.1 19:41:52 10° NNE 19:47:10 61° WNW 19:52:23 10° SW
Lacrosse 5 2.2 19:43:43 10° NW 19:48:42 64° WSW 19:50:37 36° S
Cosmos 1898 Rocket 4.0 19:44:30 10° NNW 19:49:33 57° WSW 19:54:36 10° S
USA 215 4.2 19:51:32 29° SSE 19:51:32 29° SSE 19:55:33 10° S
USA 229 DEB 3.7 19:45:04 10° NNW 19:52:20 70° ENE 19:54:55 43° SE
USA 229 3.7 19:45:11 10° NNW 19:52:26 70° ENE 19:54:55 44° SE
Centaur D AC-29 2.6 19:38:57 10° W 19:54:54 51° NNW 19:56:39 36° NNE
Cosmos 1544 4.5 19:56:10 10° SSW 19:59:32 37° W 20:02:54 10° NNW
Tiangong 2 3.5 19:56:21 10° NW 19:57:36 21° NW 19:57:36 21° NW
Cosmos 1943 Rocket 2.7 19:54:47 10° NNW 20:00:15 57° WSW 20:03:59 21° S
Cosmos 990 Rocket 3.9 19:55:20 10° NNW 20:00:28 78° WSW 20:01:14 63° SSW
NOSS 3-1 (C) 4.5 19:59:35 10° N 20:06:51 44° NE 20:06:51 44° NE
Cosmos 2150 Rocket 4.5 20:04:24 10° NNW 20:09:42 61° WSW 20:11:01 47° SSW
Mugunghwa Rocket 3.9 20:08:10 10° WSW 20:15:16 88° NNW 20:15:23 87° NNE
EXPRESS MD2 4.5 20:13:32 10° NW 20:17:37 64° SW 20:17:37 64° SW
FALCON 9 R/B 4.4 20:16:17 10° NNW 20:18:23 16° NNE 20:18:23 16° NNE
Aurora 2 Rocket 4.3 20:25:09 10° WNW 20:33:56 90° NNE 20:34:45 79° ESE
ATLAS 2AS CENTAUR RB 4.2 20:30:14 10° WSW 20:37:43 24° SSW 20:37:43 24° SSW
